Temperature
20 19 20 20 20 20 20 19 19 19 19 19 19 19 19 19 19 19 18 18 18 18 18 18 18 18 18 18 18 18 18 18 18 18 18 17 17 17 17 17 17 16 17
20 19 20 20 20 20 20 19 19 19 19 19 19 19 19 19 19 19 18 18 18 18 18 18 18 18 18 18 18 18 18 18 18 17 17 17 17 17 17 17 17 17 17
20 19 20 20 20 20 20 20 19 19 19 19 19 19 19 19 19 18 18 18 18 18 18 18 18 18 18 18 18 18 18 18 17 17 17 17 17 17 17 17 17 17 17
20 19 19 20 20 20 20 20 20 19 19 19 19 19 19 19 18 18 18 18 18 18 18 18 18 18 18 18 18 18 18 18 17 17 17 17 16 17 17 17 17 17 17
20 19 19 20 20 20 20 20 20 19 19 19 19 19 18 18 18 18 18 18 18 18 18 18 18 18 18 18 18 18 18 18 17 17 17 17 17 17 17 17 17 17 17
19 19 19 20 20 20 20 20 19 19 19 19 19 19 18 18 18 18 18 18 18 18 18 18 18 18 18 18 17 17 18 18 17 17 16 17 17 17 17 17 17 17 17
20 19 19 20 20 20 20 20 19 19 19 19 18 18 18 18 18 18 18 18 18 18 18 18 18 18 17 17 17 17 17 17 17 17 16 16 17 17 17 17 17 17 17
20 19 19 20 20 20 19 19 19 19 19 19 18 18 18 18 18 18 18 18 18 18 18 18 18 17 17 17 17 18 18 17 17 17 17 17 17 17 17 17 17 17 17
20 19 19 19 19 19 19 19 19 19 19 19 19 18 18 18 18 18 18 18 18 18 18 18 17 17 17 17 17 18 18 17 17 17 17 16 17 17 17 17 17 17 17
20 19 19 18 18 19 19 19 19 19 19 19 19 18 18 18 18 18 18 18 18 18 18 17 17 17 17 17 17 18 18 17 18 17 17 17 17 17 17 17 17 17 17
19 19 19 18 18 18 18 18 18 18 18 18 18 18 18 17 17 17 17 17 18 18 18 17 17 17 17 17 17 18 17 17 18 17 17 17 17 17 17 17 17 17 16
19 19 19 18 18 18 18 18 18 18 18 17 17 18 17 17 17 17 17 17 17 17 17 17 17 17 17 17 17 17 17 17 17 17 17 17 17 17 17 17 17 16 16
19 18 18 18 18 18 18 18 18 17 18 17 17 17 17 17 17 17 17 17 17 17 17 17 17 17 17 17 17 17 17 17 17 17 17 17 17 17 17 17 17 16 16
18 18 18 18 18 18 18 18 17 17 17 17 17 17 17 17 17 17 17 17 17 17 17 17 17 16 17 17 17 17 17 17 17 17 17 17 17 17 17 17 17 16 16
18 18 18 18 18 18 18 18 17 17 17 17 17 17 17 17 17 17 17 17 17 16 17 17 16 16 16 17 17 17 17 17 17 17 16 17 17 17 17 16 17 16 16
18 18 18 18 18 18 18 18 18 17 17 17 17 17 17 17 17 17 17 17 16 16 16 16 16 16 16 16 16 16 17 17 16 16 16 16 17 17 16 16 16 16 16
18 18 18 18 18 18 18 18 18 17 17 17 17 17 17 17 17 17 17 17 16 16 16 16 16 16 16 16 16 16 16 16 16 16 16 16 16 16 16 16 16 16 16
18 17 17 17 18 18 18 18 17 17 17 17 17 17 17 17 17 17 17 16 16 16 16 16 16 16 16 16 16 16 16 16 16 16 16 16 16 16 16 16 16 16 16
18 17 17 17 17 17 17 17 17 17 17 17 17 17 17 17 17 17 17 16 16 16 16 16 16 16 16 16 16 16 16 16 16 16 16 16 16 16 16 16 16 16 16
17 17 17 17 17 17 17 17 17 17 17 17 17 17 17 17 17 16 16 16 16 16 16 16 16 16 16 16 17 16 16 16 16 16 16 16 16 16 16 15 16 16 16
17 17 17 17 17 17 17 17 17 17 17 17 17 17 17 17 16 16 16 16 16 16 16 16 16 16 16 16 16 17 17 17 16 16 16 16 16 16 16 15 16 15 15
17 17 17 17 17 17 17 17 17 17 17 17 17 17 17 16 16 16 16 16 16 16 16 16 16 16 16 16 17 17 17 17 16 17 16 16 16 16 16 16 15 15 15
17 17 17 17 17 17 17 17 17 17 17 17 17 17 16 16 16 16 16 16 16 16 16 16 15 15 16 16 16 17 18 18 18 17 16 16 16 16 16 16 15 15 15
17 17 17 17 17 17 17 17 17 17 17 17 17 17 16 16 16 16 16 16 16 16 16 16 15 15 15 16 16 16 17 17 18 18 17 16 16 16 16 16 16 15 15
17 17 17 17 17 17 17 17 17 17 17 17 17 17 16 16 16 16 16 16 16 16 15 15 15 15 16 16 16 16 16 16 17 17 18 17 17 16 16 16 16 16 15
17 17 17 17 17 17 17 17 17 17 17 17 17 16 16 16 16 16 16 16 16 15 15 15 15 15 15 15 16 16 16 17 17 17 18 17 17 17 16 16 16 16 15
Wind_Speed
16 19 20 17 16 16 16 16 17 17 18 17 17 16 15 14 13 12 12 12 12 12 13 13 13 13 13 13 13 13 14 14 15 15 15 15 15 15 15 15 15 17 17
19 21 21 18 17 17 17 17 17 17 17 17 16 16 15 14 13 12 12 12 12 13 13 13 13 13 13 14 14 13 13 13 14 14 15 15 15 14 12 11 13 16 16
21 22 22 19 19 18 17 17 17 17 17 17 16 15 15 14 13 12 12 12 13 13 13 13 14 14 13 13 13 13 13 13 13 12 11 13 14 13 13 15 17 16 15
21 22 21 21 19 19 18 17 17 17 17 16 16 15 14 14 13 13 13 13 13 13 13 13 13 13 13 12 12 12 12 12 10 8 8 12 13 14 14 15 15 15 15
20 21 21 22 20 19 18 18 17 17 17 16 15 15 14 14 13 13 13 13 13 13 13 13 13 12 12 11 11 11 11 10 6 4 10 11 13 13 13 13 14 14 14
20 21 23 22 20 19 18 18 17 17 16 16 15 14 14 14 13 13 13 13 13 13 12 12 12 11 10 10 10 10 10 8 7 9 9 10 12 12 12 12 13 13 13
20 20 23 21 20 19 18 18 17 16 16 15 15 14 13 13 13 13 13 13 13 12 12 11 10 9 9 8 8 8 7 4 4 8 7 10 12 12 12 11 12 12 12
19 19 22 21 20 19 18 18 17 16 15 15 14 14 13 13 12 12 12 12 12 12 11 10 9 8 7 7 7 7 6 4 7 7 7 10 12 10 10 10 10 11 11
18 18 20 21 20 19 18 17 17 16 15 15 14 14 13 13 12 12 12 12 11 10 9 8 7 7 6 7 7 7 5 2 3 6 8 9 11 9 9 9 9 10 10
17 17 17 19 19 18 18 17 16 16 15 14 14 13 13 13 12 11 12 11 10 9 8 7 7 7 7 7 7 7 6 5 4 7 7 10 10 8 8 8 8 8 9
16 16 16 17 16 17 17 17 17 15 14 14 13 13 12 12 12 11 11 11 9 9 8 7 6 6 5 8 8 7 7 4 5 4 6 12 9 8 8 7 7 8 8
18 17 15 15 15 15 15 16 14 14 14 12 11 12 9 8 8 9 12 9 9 8 8 7 5 5 5 5 8 8 4 3 4 4 8 10 7 7 7 7 7 7 7
18 17 15 14 14 14 11 13 11 11 12 10 11 10 8 8 8 8 8 9 8 8 6 7 5 3 2 2 2 2 2 2 3 4 9 9 7 7 7 6 6 6 7
18 17 15 14 13 12 12 11 10 10 10 10 11 10 9 6 6 6 5 6 5 4 4 4 3 2 1 2 1 2 3 2 2 4 8 9 7 6 7 6 6 6 6
17 17 15 14 13 12 10 10 10 10 10 10 10 9 8 7 5 5 4 4 4 4 5 3 3 3 2 3 3 2 2 2 2 2 7 8 7 7 6 6 6 6 6
17 16 15 15 14 12 11 9 9 10 9 10 10 10 8 7 6 5 5 4 4 3 3 3 3 3 2 2 2 2 2 3 3 2 4 8 8 7 7 7 7 7 7
16 16 16 16 14 13 12 11 9 10 11 9 9 9 8 7 6 5 5 4 4 3 4 3 3 3 3 3 2 2 3 2 3 2 3 4 7 9 8 7 7 8 8
14 14 15 14 15 14 11 10 9 9 10 9 9 9 9 7 7 6 4 4 4 4 4 3 4 4 3 3 3 2 3 3 3 3 4 5 4 5 9 9 8 8 8
13 14 15 14 15 14 12 10 9 8 8 9 9 9 9 8 8 6 4 3 5 4 4 4 4 3 3 3 4 3 3 3 3 4 3 4 4 4 6 9 9 8 8
12 13 14 15 14 13 11 9 8 8 8 8 8 8 9 8 8 6 5 5 5 4 4 3 3 2 2 3 3 3 3 3 3 2 3 4 4 5 5 5 8 9 9
12 13 14 15 14 13 11 11 10 10 9 8 8 9 9 8 8 6 5 5 5 5 4 5 4 5 4 3 3 4 4 4 3 2 2 2 3 3 3 4 4 4 7
13 13 15 17 16 15 12 11 10 10 8 8 7 8 9 9 8 7 6 6 5 4 5 5 4 4 3 4 4 4 4 5 4 3 3 4 3 4 4 5 4 3 3
13 14 14 17 17 16 14 11 10 9 8 7 8 8 8 9 9 7 7 6 5 6 5 6 6 6 4 4 3 3 3 2 4 4 3 3 3 2 3 3 5 4 4
13 13 14 15 16 16 15 13 15 12 10 9 8 8 8 9 9 9 8 7 6 5 4 6 6 5 5 5 4 3 3 3 2 3 5 5 4 4 3 3 4 5 5
12 12 12 14 15 15 15 15 14 12 9 8 8 9 9 8 9 9 8 7 6 5 5 4 5 6 5 5 4 4 4 3 5 4 3 4 4 4 4 4 4 4 4
12 12 12 14 14 15 15 15 14 13 12 11 10 10 9 8 8 9 9 8 7 6 6 6 6 7 5 4 4 4 4 4 5 5 4 5 4 4 4 3 4 5 5
Wind_Direction
160 149 147 152 147 142 138 136 135 136 137 135 133 133 132 130 126 120 115 110 108 107 105 104 103 104 103 103 103 104 104 107 108 108 107 106 107 109 113 119 119 107 108
153 148 149 153 150 144 140 137 135 135 135 135 134 133 132 130 125 120 117 113 111 108 105 104 103 102 101 101 101 102 104 109 112 114 117 112 108 109 109 100 92 107 113
150 147 153 154 151 147 143 140 138 136 136 135 135 134 133 131 127 123 118 113 111 109 106 105 104 102 101 102 103 103 104 108 113 124 140 122 113 108 104 101 104 113 112
150 150 155 153 152 149 145 143 141 140 138 137 136 135 133 130 127 122 117 113 110 108 107 106 104 103 102 102 104 105 105 107 118 159 135 115 116 111 111 111 113 114 113
150 150 149 154 153 150 147 145 144 142 140 139 139 136 132 129 125 121 117 113 111 109 108 106 104 104 104 104 105 107 108 114 143 164 101 106 109 116 116 116 116 117 116
152 153 149 156 153 151 149 147 145 144 141 139 139 135 131 128 124 122 119 116 112 109 107 106 105 104 103 104 106 110 116 141 187 105 110 114 114 120 119 118 118 118 118
156 153 151 157 154 153 152 150 147 146 143 139 137 133 129 125 121 120 118 114 112 110 108 106 104 101 100 104 108 115 123 175 125 107 113 106 109 121 122 121 119 120 120
157 154 150 156 155 154 154 152 149 148 144 140 136 133 129 127 123 121 118 115 112 110 108 105 102 98 94 98 107 116 138 215 122 112 109 106 111 123 123 123 124 124 124
159 153 154 159 158 157 155 153 151 149 145 142 138 134 130 128 126 122 120 119 115 112 108 105 101 93 91 99 110 117 130 275 129 117 116 111 121 128 128 129 130 130 130
163 159 159 162 160 161 159 156 154 151 147 144 141 139 136 132 131 131 134 121 119 116 112 107 100 92 91 102 114 125 146 216 135 127 118 116 128 136 136 136 138 137 137
170 166 166 161 162 164 160 155 157 153 149 150 149 147 156 153 143 150 122 123 123 120 117 109 103 102 117 122 123 140 184 189 131 112 105 113 137 145 146 146 147 146 146
175 173 170 165 163 165 160 158 163 161 157 166 156 159 161 140 140 130 124 130 127 127 128 118 119 154 202 141 143 180 185 163 141 133 112 123 145 153 153 152 154 157 155
177 176 172 167 166 168 161 163 165 159 158 163 159 162 150 150 148 145 149 148 148 155 152 141 174 178 143 95 142 175 132 159 145 132 124 138 153 158 160 163 165 168 167
180 179 176 169 170 172 165 163 164 162 164 164 160 167 158 159 156 152 159 155 162 156 145 159 164 147 135 140 154 163 160 171 132 115 124 144 157 161 166 171 176 176 175
183 180 176 171 172 174 168 170 169 167 168 162 160 167 166 165 163 154 156 161 170 156 163 174 174 156 180 179 176 167 169 149 130 142 133 147 157 166 172 178 184 188 188
184 179 174 172 175 174 172 174 170 169 165 163 166 166 173 169 161 164 169 172 171 172 161 179 164 173 180 163 169 156 184 166 145 188 158 158 169 178 184 188 192 193 194
184 180 177 174 176 177 176 177 175 171 167 169 165 165 173 171 166 175 171 177 168 163 163 180 172 173 172 170 170 169 174 182 162 172 175 176 174 182 189 194 200 202 202
181 179 178 178 177 178 177 178 175 175 168 167 165 169 175 172 176 185 180 179 167 180 178 176 192 183 177 177 169 178 164 164 176 187 183 187 192 186 182 189 201 207 209
186 180 178 180 178 178 175 175 174 169 167 167 169 174 173 176 181 191 189 169 183 186 188 200 173 199 180 180 175 171 180 175 183 188 184 188 185 198 184 173 188 200 208
186 182 179 182 178 178 174 172 168 168 170 174 175 174 172 178 183 189 185 184 198 191 188 187 165 188 192 197 194 163 185 177 193 172 199 187 186 193 190 175 182 186 194
185 183 181 182 180 178 176 176 174 175 174 174 176 174 179 182 181 189 189 184 203 196 194 187 188 181 193 188 193 184 182 185 183 187 209 206 178 184 182 182 202 189 181
187 186 185 185 183 182 181 178 177 173 174 173 175 173 183 186 185 186 191 193 195 191 194 197 208 214 188 197 225 206 193 181 197 190 197 206 206 193 193 193 185 203 232
189 188 188 185 182 183 178 171 167 163 167 171 175 178 184 186 190 190 192 202 195 208 195 201 203 214 206 195 229 249 236 211 167 173 194 202 207 204 212 191 196 192 212
191 190 187 182 182 181 177 177 175 177 177 180 180 178 180 186 189 191 194 198 202 208 194 205 200 209 216 205 192 244 295 347 257 182 187 182 195 212 220 226 198 188 199
186 184 182 178 180 179 181 183 182 182 179 174 176 176 184 185 193 195 195 195 198 204 202 211 193 217 217 228 213 207 213 223 250 258 213 189 197 196 195 212 218 206 193
182 181 178 178 180 179 181 184 186 182 175 174 179 179 187 188 193 196 197 198 201 199 196 204 207 210 229 235 243 231 229 233 233 241 239 224 216 198 198 215 222 211 212
Height
1521 1524 1525 1528 1530 1533 1535 1537 1538 1540 1542 1543 1544 1545 1546 1547 1548 1549 1550 1551 1552 1553 1553 1554 1555 1556 1556 1557 1557 1558 1558 1559 1559 1560 1560 1561 1562 1563 1563 1564 1566 1566 1566
1520 1523 1525 1528 1531 1534 1536 1538 1540 1541 1543 1544 1546 1547 1548 1549 1550 1551 1552 1553 1554 1555 1555 1556 1556 1557 1558 1559 1559 1560 1560 1561 1562 1562 1563 1564 1565 1565 1566 1567 1568 1568 1569
1520 1522 1525 1529 1532 1535 1537 1539 1541 1543 1544 1546 1547 1548 1550 1551 1552 1553 1554 1555 1556 1557 1557 1558 1558 1559 1560 1561 1562 1562 1563 1563 1564 1565 1566 1568 1567 1568 1569 1569 1570 1571 1572
1521 1523 1526 1530 1533 1536 1538 1540 1542 1544 1546 1547 1549 1550 1551 1553 1554 1555 1556 1557 1558 1559 1559 1560 1560 1561 1562 1563 1564 1564 1565 1566 1567 1568 1570 1571 1571 1570 1571 1572 1572 1573 1574
1522 1525 1527 1531 1534 1537 1539 1541 1543 1545 1547 1549 1550 1552 1553 1554 1556 1557 1558 1559 1560 1560 1561 1562 1563 1564 1565 1565 1566 1567 1567 1568 1569 1571 1572 1572 1572 1572 1573 1574 1575 1575 1576
1522 1526 1528 1532 1535 1538 1540 1543 1545 1547 1549 1550 1552 1553 1555 1556 1557 1558 1559 1560 1561 1562 1563 1564 1565 1566 1567 1568 1568 1569 1570 1570 1572 1574 1574 1575 1574 1574 1575 1576 1577 1578 1578
1524 1527 1529 1532 1536 1539 1541 1544 1546 1548 1550 1552 1553 1555 1556 1558 1559 1560 1561 1562 1563 1564 1565 1566 1567 1568 1569 1570 1571 1571 1572 1572 1576 1576 1576 1577 1576 1576 1577 1578 1579 1580 1580
1525 1528 1529 1533 1536 1539 1542 1545 1547 1549 1551 1553 1555 1556 1558 1559 1560 1562 1563 1564 1565 1566 1567 1568 1570 1570 1571 1572 1573 1573 1574 1574 1577 1578 1579 1578 1577 1578 1579 1580 1581 1582 1582
1526 1529 1530 1533 1537 1540 1543 1545 1548 1550 1552 1554 1556 1558 1559 1560 1562 1563 1564 1565 1567 1568 1569 1570 1571 1572 1573 1574 1574 1575 1575 1576 1580 1579 1580 1579 1579 1580 1581 1581 1582 1583 1584
1526 1529 1531 1534 1537 1540 1543 1546 1548 1551 1553 1555 1557 1558 1560 1562 1563 1564 1566 1567 1568 1569 1571 1572 1573 1574 1574 1575 1576 1576 1577 1578 1581 1581 1581 1580 1580 1581 1582 1583 1584 1585 1586
1526 1529 1532 1534 1537 1541 1544 1546 1549 1551 1553 1556 1558 1559 1561 1564 1565 1566 1567 1568 1569 1570 1572 1573 1574 1575 1576 1576 1577 1578 1578 1581 1582 1583 1582 1581 1582 1582 1583 1584 1585 1586 1587
1523 1527 1530 1533 1536 1540 1544 1546 1549 1552 1554 1557 1559 1560 1563 1564 1566 1568 1567 1569 1570 1571 1572 1573 1575 1576 1577 1579 1578 1579 1581 1582 1583 1583 1582 1582 1582 1583 1584 1585 1586 1587 1588
1521 1525 1529 1532 1535 1539 1542 1545 1549 1552 1554 1556 1559 1561 1563 1564 1566 1568 1569 1570 1570 1572 1573 1574 1576 1578 1579 1579 1580 1581 1582 1583 1583 1584 1583 1582 1583 1584 1585 1586 1587 1587 1588
1519 1523 1527 1530 1533 1538 1541 1545 1548 1551 1553 1556 1558 1560 1563 1564 1566 1568 1569 1570 1571 1572 1573 1575 1576 1577 1578 1578 1579 1580 1581 1583 1583 1584 1582 1583 1583 1584 1585 1586 1587 1588 1589
1517 1520 1524 1527 1531 1536 1539 1543 1547 1550 1553 1555 1557 1560 1562 1564 1566 1568 1569 1570 1572 1572 1573 1574 1575 1576 1577 1578 1579 1580 1581 1582 1583 1583 1583 1583 1583 1584 1585 1586 1587 1588 1589
1514 1518 1521 1524 1529 1534 1538 1541 1545 1549 1551 1555 1557 1559 1561 1564 1566 1567 1568 1570 1571 1572 1573 1574 1575 1575 1577 1578 1578 1579 1580 1581 1581 1582 1583 1583 1583 1584 1585 1586 1587 1587 1588
1512 1515 1518 1522 1527 1532 1536 1540 1544 1547 1551 1554 1556 1558 1561 1563 1565 1567 1568 1569 1571 1571 1572 1573 1574 1575 1576 1577 1577 1578 1579 1580 1582 1582 1583 1583 1584 1584 1585 1585 1586 1587 1587
1510 1512 1515 1520 1525 1530 1534 1538 1542 1547 1550 1552 1555 1558 1560 1562 1564 1566 1568 1569 1569 1570 1572 1572 1574 1575 1576 1577 1577 1578 1579 1580 1580 1581 1582 1582 1583 1584 1584 1584 1585 1586 1586
1507 1510 1513 1517 1522 1528 1533 1537 1541 1545 1548 1551 1554 1557 1559 1561 1563 1565 1567 1568 1569 1570 1571 1572 1573 1574 1575 1576 1577 1577 1579 1580 1580 1581 1582 1582 1582 1583 1584 1583 1584 1584 1585
1505 1507 1511 1515 1520 1525 1530 1535 1539 1543 1546 1550 1553 1555 1558 1560 1562 1564 1565 1566 1568 1569 1570 1571 1572 1573 1574 1575 1577 1578 1578 1579 1580 1580 1581 1582 1582 1582 1583 1583 1583 1584 1584
1502 1505 1508 1512 1517 1522 1527 1532 1536 1540 1544 1548 1551 1554 1556 1559 1560 1562 1565 1565 1567 1568 1569 1570 1572 1572 1574 1574 1576 1577 1578 1578 1579 1580 1580 1581 1581 1582 1582 1582 1583 1584 1584
1499 1502 1505 1509 1514 1520 1524 1530 1534 1539 1543 1546 1550 1552 1555 1557 1559 1562 1563 1564 1566 1567 1568 1569 1570 1572 1573 1574 1575 1576 1577 1578 1578 1579 1579 1580 1580 1581 1581 1581 1582 1582 1583
1497 1500 1503 1507 1512 1517 1522 1528 1532 1536 1541 1544 1548 1551 1553 1556 1558 1560 1562 1564 1564 1566 1567 1568 1569 1570 1572 1573 1574 1575 1575 1575 1576 1578 1578 1579 1579 1580 1580 1580 1581 1581 1582
1495 1498 1501 1504 1509 1515 1520 1525 1529 1533 1538 1542 1545 1549 1552 1554 1557 1559 1560 1562 1563 1565 1565 1567 1568 1569 1570 1572 1572 1573 1574 1574 1575 1576 1577 1577 1578 1578 1579 1580 1580 1580 1580
1493 1496 1499 1502 1507 1512 1517 1522 1527 1531 1536 1540 1544 1547 1550 1553 1555 1557 1559 1560 1561 1563 1564 1565 1566 1567 1569 1570 1571 1572 1573 1573 1574 1575 1575 1577 1577 1578 1578 1578 1579 1579 1579
1492 1494 1497 1501 1505 1510 1515 1520 1525 1529 1533 1537 1541 1544 1548 1551 1553 1555 1557 1558 1560 1561 1562 1563 1564 1565 1567 1568 1569 1570 1571 1572 1573 1573 1574 1575 1575 1576 1576 1577 1577 1578 1578